STARLINK-36994

Last updated on Mon Mar 30 2026 00:02:05 GMT+0000 (Coordinated Universal Time)

1 67997U 26039M 26088.16668981 -.01940602 00000+0 -48269-1 0 9990 2 67997 42.9997 298.8304 0001599 269.6315 80.9056 15.42891652 6007
UTC large
Height (km)
Speed (km/s)
/
Latitude / Longitude
Inclination (degrees)
Orbital Period (minutes)
Azimuth
Elevation
Range (km)
Doppler Factor

Next 0 passes for location: London (51.5072 / 0.1276)

Sorry there are no passes over London.